Flag for United Kingdom Weather past 2 weeks in Sunderland, England, United Kingdom

Now
59 °F

Scattered clouds.


Feels Like: 57 °F
Forecast: 45 / 58 °F
Wind: 9 mph from Northeast

Location: Newcastle

Current Time: May 25, 2015 at 3:55:13 PM

Latest Report: May 25, 2015 at 3:20 PM


Visibility: N/A

Pressure: 30.01 "Hg

Humidity: 59%

Dew point: 45 °F

Location of SunderlandLocation

Historic Weather in Sunderland — Graph

°F

Sunderland temperature yesterday

Maximum temperature yesterday: 57 °F (at 2:20 PM)
Minimum temperature yesterday: 48 °F (at 11:20 PM)
Average temperature yesterday: 53 °F

Past Weeks' High & Low Weather Summary

 TemperatureHumidityPressure
High64 °F (May 23, 4:50 PM)100% (May 11, 7:20 AM)30.27 "Hg (May 11, 7:20 AM)
Low32 °F (May 14, 2:50 AM)36% (May 23, 7:20 PM)29.36 "Hg (May 19, 1:20 AM)
Average51 °F73%29.96 "Hg
* Reported May 10 2:20 PM — May 25 2:50 PM, Sunderland, Weather by CustomWeather, © 2015

Note: Actual official high and low records may vary slightly from our data, if they occured in-between our weather recording intervals... More about our weather records

Advertising

Sunderland weather history for previous 24 hours

 ConditionsComfort  
Time TempWeatherWind HumidityBarometerVisibility
2:50 PM
Mon, May 25
57 °FPartly sunny.9 mph63%30.04 "HgN/A
2:20 PM55 °FPartly sunny.9 mph67%30.04 "HgN/A
1:50 PM55 °FPartly sunny.10 mph72%30.04 "HgN/A
1:20 PM55 °FPartly sunny.10 mph72%30.04 "HgN/A
12:50 PM54 °FPartly sunny.9 mph72%30.04 "HgN/A
12:20 PM54 °FPartly sunny.10 mph72%30.04 "HgN/A
11:50 AM54 °FPartly sunny.9 mph72%30.04 "HgN/A
11:20 AM52 °FPartly sunny.8 mph77%30.04 "HgN/A
10:50 AM52 °FPartly sunny.9 mph77%30.04 "HgN/A
10:20 AM50 °FPartly sunny.12 mph82%30.04 "HgN/A
8:50 AM50 °FPartly sunny.13 mph76%30.04 "HgN/A
8:20 AM50 °FScattered clouds.13 mph71%30.04 "HgN/A
7:50 AM50 °FPassing clouds.13 mph76%30.04 "HgN/A
7:20 AM48 °FPassing clouds.12 mph82%30.04 "HgN/A
6:50 AM48 °FScattered clouds.13 mph82%30.01 "HgN/A
6:20 AM48 °FScattered clouds.10 mph82%30.01 "HgN/A
5:50 AM46 °FPartly sunny.15 mph87%30.01 "HgN/A
5:20 AM46 °FPassing clouds.14 mph82%30.01 "HgN/A
4:50 AM46 °FPassing clouds.13 mph82%30.01 "HgN/A
4:20 AM46 °FPassing clouds.13 mph87%30.01 "HgN/A
3:20 AM46 °FPassing clouds.14 mph87%30.01 "HgN/A
2:50 AM46 °FPassing clouds.14 mph87%30.04 "HgN/A
2:20 AM46 °FPassing clouds.13 mph82%30.04 "HgN/A
1:50 AM46 °FPassing clouds.14 mph82%30.04 "HgN/A
1:20 AM46 °FPassing clouds.13 mph82%30.04 "HgN/A
12:50 AM48 °FPassing clouds.14 mph76%30.04 "HgN/A
12:20 AM48 °FPassing clouds.12 mph76%30.04 "HgN/A
11:50 PM
Sun, May 24
48 °FPassing clouds.12 mph76%30.04 "HgN/A
11:20 PM48 °FPassing clouds.14 mph76%30.04 "HgN/A
10:20 PM50 °FPartly sunny.13 mph71%30.04 "HgN/A
9:50 PM50 °FPartly sunny.12 mph71%30.04 "HgN/A
9:20 PM50 °FPartly sunny.12 mph67%30.04 "HgN/A
8:50 PM50 °FPartly sunny.13 mph67%30.04 "HgN/A
8:20 PM52 °FPartly sunny.13 mph67%30.04 "HgN/A
7:50 PM52 °FPartly sunny.13 mph67%30.04 "HgN/A
7:20 PM52 °FPartly sunny.16 mph67%30.04 "HgN/A
6:50 PM52 °FPartly sunny.13 mph67%30.04 "HgN/A
6:20 PM54 °FPartly sunny.18 mph63%30.01 "HgN/A
5:50 PM54 °FPartly sunny.21 mph63%30.01 "HgN/A
5:20 PM54 °FPartly sunny.18 mph63%30.01 "HgN/A
4:50 PM55 °FPartly sunny.17 mph59%30.01 "HgN/A
4:20 PM55 °FPartly sunny.14 mph59%30.01 "HgN/A
3:50 PM55 °FScattered clouds.15 mph59%30.01 "HgN/A
3:20 PM55 °FScattered clouds.17 mph63%30.01 "HgN/A
Weather by CustomWeather, © 2015

See weather overviewHow to use our weather pages